Location: Allonne
(49.4086°N, 2.1143°E)
Time: 22:32:38
(UTC+00:00)

CZ-4C R/B - Pass Details

Date: 03 February 2023
Orbit: 456 x 611 km, 98.1° (Epoch: 01 April)

Event Time Altitude Azimuth Distance (km) Brightness Sun altitude
Rises 18:06:38 0° 15° (NNE) 2,724 6.6 -12.6°
Reaches altitude 10° 18:08:49 10° 18° (NNE) 1,798 5.7 -13.0°
Maximum altitude 18:12:41 72° 103° (ESE) 544 3.1 -13.6°
Drops below altitude 10° 18:16:19 10° 188° (S) 1,691 6.0 -14.2°
Sets 18:18:20 0° 191° (S) 2,545 7.0 -14.5°
